UNGO2: Muddy Boggy, Unger, OK

Data processed at Sat Mar 10 2018 23:48


All information presented herein is the property of the government of the United States of America and may be revised or deleted at any time without prior notice.
Dissemination of this information without the expressed written consent of the Public Affairs Office, Tulsa District U.S. Army Corps of Engineers is strictly prohibited.
These data are gathered electronically and, as presented, have not undergone any form of quality control. These data are not guaranteed to be valid or correct.
Go to home page.
Go to station list.

Upstream stations:

Downstream station:
Previous Day
Next Day
Current Day
    
SHEF ID:       UNGO2     Muddy Boggy Creek near Unger, OK
STATION TYPE:  

               PRECIP     STAGE  STAGE(2)  RIV-FLOW  BAT-LOAD
                   in        ft        ft       cfs      volt
              Ccp-Rev   Ccp-Rev   Ccp-Rev   Ccp-Rev   Ccp-Rev
(US/Central)
03/08 00:00      0.00     15.75      8.78      1610     12.83
03/08 01:00      0.00     15.71      8.78      1590     12.77
03/08 02:00      0.00     15.63      8.78      1570     12.77
03/08 03:00      0.00     15.60      8.78      1560     12.71
03/08 04:00      0.00     15.52      8.78      1540     12.71
03/08 05:00      0.00     15.47      8.78      1520     12.65
03/08 06:00      0.00     15.45      8.78      1520     12.65
03/08 07:00      0.00     15.37      8.78      1490     12.60
03/08 08:00      0.00     15.33      8.78      1480     12.71
03/08 09:00      0.00     15.30      8.78      1470     13.42
03/08 10:00      0.00     15.27      8.78      1460     13.53
03/08 11:00      0.00     15.24      8.78      1450     13.53
03/08 12:00      0.00     15.22      8.78      1450     13.53
03/08 13:00      0.00     15.18      8.78      1430     13.53
03/08 14:00      0.00     15.16      8.78      1430     13.65
03/08 15:00      0.00     15.13      8.78      1420     13.59
03/08 16:00      0.00     15.10      8.78      1410     13.53
03/08 17:00      0.00     15.08      8.78      1410     13.48
03/08 18:00      0.00     15.04      8.80      1390     13.48
03/08 19:00      0.00     15.02      8.78      1390     13.18
03/08 20:00      0.00     14.99      8.78      1380     13.00
03/08 21:00      0.00     14.97      8.78      1370     12.95
03/08 22:00      0.00     14.94      8.78      1370     12.89
03/08 23:00      0.00     14.91      8.78      1360     12.89